Find Starlink 35626

NORAD ID: 66233 Int'l Des: 2025-244 Owner: SPXS Country: US Constellation: starlink operational
LEOCIRCULAR

現在のビュー

3D地球を読み込み中...

About Starlink 35626

Starlink 35626 (NORAD 66233) is a starlink constellation satellite (v2 mini) launched Oct 28, 2025 by SPXS of US. It operates in LEO, CIRCULAR orbit with a mass of 575.00 kg.

Starlink 35626について

説明を読み込み中...

次回通過

Passes for default location (London). Set your location on the main map for personalized predictions.

高度履歴

Loading altitude history...

軌道要素

1 66233U 25244AD 26194.73713682 .00005360 00000-0 19296-3 0 9990
2 66233 53.1607 4.7302 0000508 114.2442 245.8612 15.30200421 40955
Epoch: Jul 13, 2026 • Age: 15 hours

現在のステータス

高度 481.3 km
遠地点 / 近地点 N/A
速度 7.63 km/s
衛星直下点 52.89°N, 46.46°E
打ち上げ日 Oct 28, 2025
運用期間 0.7 years
タイプ internet

技術仕様

分類 Payload
質量 575.00 kg
乾燥質量 530.00 kg
総質量 575.00 kg
長さ 0.30 m
直径 4.10 m
スパン 29.00 m
形状 Box + pan
製造者 SPXS
バスタイプ Starlink V2MO
フェーズステータス In Orbit
所有者/国 SPXS/US

Most Searched